DW0529 Weather Reports


Display with metric or nautical units.
time (UTC)temp
F
wind
direction
speed
MPH
gust
MPH
rain 1hr
in
rain 24hr
in
rain mn
in
humidity
%
barometer
mb
20260503025954 56 197 0.0 0.0 0.00 0.00 0.00 93 966.0
20260503025010 56 213 1.0 4.0 0.00 0.00 0.00 92 966.0
20260503024005 57 219 1.0 4.0 0.00 0.00 0.00 91 965.7
20260503023004 57 182 1.0 4.0 0.00 0.00 0.00 90 965.7
20260503022002 57 223 1.0 5.0 0.00 0.00 0.00 88 965.5
20260503020936 58 220 1.0 6.0 0.00 0.00 0.00 85 965.6
20260503015902 60 194 2.0 6.0 0.00 0.00 0.00 82 965.6
20260503014839 61 218 1.0 4.0 0.00 0.00 0.00 80 965.6
20260503013840 62 215 1.0 4.0 0.00 0.00 0.00 79 965.5
20260503012856 62 211 1.0 4.0 0.00 0.00 0.00 77 965.5
20260503005646 64 224 1.0 5.0 0.00 0.00 0.00 74 965.3
20260503004638 64 165 1.0 6.0 0.00 0.00 0.00 74 965.4
20260503002510 66 200 2.0 5.0 0.00 0.00 0.00 71 965.6
20260503001507 66 192 1.0 3.0 0.00 0.00 0.00 71 965.6
20260503000500 66 211 2.0 7.0 0.00 0.00 0.00 70 965.7
20260502235439 67 181 1.0 6.0 0.00 0.00 0.00 69 965.7
20260502234436 67 202 1.0 6.0 0.00 0.00 0.00 69 965.8
20260502233426 67 192 1.0 3.0 0.00 0.00 0.00 68 965.8
20260502231328 68 183 1.0 6.0 0.00 0.00 0.00 68 965.8
20260502230304 68 215 2.0 6.0 0.00 0.00 0.00 68 966.1
20260502225315 67 146 1.0 5.0 0.00 0.00 0.00 69 966.2
20260502224315 67 159 1.0 5.0 0.00 0.00 0.00 69 966.5
20260502223310 67 204 1.0 5.0 0.00 0.00 0.00 69 966.8
20260502222246 67 209 1.0 4.0 0.00 0.00 0.00 69 967.1
20260502221305 67 211 1.0 4.0 0.00 0.00 0.00 69 967.2
20260502220311 68 223 0.0 4.0 0.00 0.00 0.00 67 967.3
20260502215321 68 202 1.0 5.0 0.00 0.00 0.00 68 967.5
20260502214332 68 156 1.0 6.0 0.00 0.00 0.00 68 967.6
20260502213258 68 184 2.0 6.0 0.00 0.00 0.00 70 967.8
20260502210051 68 230 1.0 9.0 0.00 0.00 0.00 68 968.1
20260502205042 69 195 3.0 9.0 0.00 0.00 0.00 68 968.2
20260502204016 71 190 1.0 7.0 0.00 0.00 0.00 65 968.3
20260502203009 70 223 1.0 3.0 0.00 0.00 0.00 66 968.2
20260502202022 69 150 1.0 5.0 0.00 0.00 0.00 68 968.2
20260502201045 69 146 1.0 5.0 0.00 0.00 0.00 66 968.4
20260502200042 70 162 1.0 4.0 0.00 0.00 0.00 68 968.4
20260502195055 68 213 1.0 5.0 0.00 0.00 0.00 69 968.7
20260502194053 66 227 1.0 5.0 0.00 0.00 0.00 71 968.7
20260502193043 66 161 0.0 4.0 0.00 0.00 0.00 74 968.9
20260502184641 62 210 1.0 4.0 0.00 0.00 0.00 98 969.4
20260502183643 61 192 1.0 4.0 0.00 0.00 0.00 100 969.6
20260502182652 60 171 0.0 4.0 0.00 0.00 0.00 100 969.5
20260502181710 59 90 1.0 3.0 0.00 0.00 0.00 100 969.5
20260502180716 58 205 0.0 0.0 0.00 0.00 0.00 100 969.6
20260502163620 56 205 0.0 0.0 0.00 0.00 0.00 100 970.1
20260502162637 56 205 0.0 3.0 0.00 0.00 0.00 100 970.0
20260502161630 55 206 1.0 4.0 0.00 0.00 0.00 100 970.1
20260502160606 56 211 1.0 4.0 0.00 0.00 0.00 100 970.0
20260502151531 55 213 0.0 0.0 0.00 0.00 0.00 100 969.7
20260502150522 55 213 0.0 0.0 0.00 0.00 0.00 99 969.6
20260502130304 54 213 0.0 0.0 0.00 0.00 0.00 98 968.9
20260502123237 54 213 0.0 1.0 0.00 0.00 0.00 98 968.8
20260502122236 54 213 0.0 0.0 0.00 0.00 0.00 98 968.8
20260502121211 54 213 0.0 2.0 0.00 0.00 0.00 98 968.8
20260502120211 54 213 0.0 0.0 0.00 0.00 0.00 98 968.8
20260502114052 53 213 0.0 0.0 0.00 0.00 0.00 98 968.6
20260502111920 52 213 0.0 0.0 0.00 0.00 0.00 98 968.4
20260502110927 52 213 0.0 0.0 0.00 0.00 0.00 98 968.5
20260502103637 55 213 0.0 0.0 0.00 0.00 0.00 98 968.1
20260502102645 55 213 0.0 0.0 0.00 0.00 0.00 98 968.2
20260502100530 55 213 0.0 0.0 0.00 0.00 0.00 98 968.1
20260502090426 54 213 0.0 0.0 0.00 0.00 0.00 98 968.5
20260502071331 55 213 0.0 0.0 0.00 0.00 0.00 97 969.3
20260502070316 55 213 0.0 0.0 0.00 0.00 0.00 97 969.2
20260502065251 54 213 0.0 0.0 0.00 0.00 0.00 96 969.2
20260502064314 55 213 0.0 0.0 0.00 0.00 0.00 96 969.2
20260502063244 55 213 0.0 0.0 0.00 0.00 0.00 96 969.1
20260502062258 55 213 0.0 0.0 0.00 0.00 0.00 96 969.0
20260502061321 55 213 0.0 0.0 0.00 0.00 0.00 96 968.9
20260502060337 55 213 0.0 0.0 0.00 0.00 0.00 95 969.0
20260502055307 55 213 0.0 0.0 0.00 0.00 0.00 95 968.9
20260502054246 55 213 0.0 0.0 0.00 0.00 0.00 95 969.1
20260502053259 55 213 0.0 0.0 0.00 0.00 0.00 95 969.0
20260502052315 56 213 0.0 0.0 0.00 0.00 0.00 95 969.1
20260502051309 56 213 0.0 0.0 0.00 0.00 0.00 94 969.1
20260502050256 56 213 0.0 0.0 0.00 0.00 0.00 94 968.9
20260502045255 56 213 0.0 0.0 0.00 0.00 0.00 93 968.9
20260502044252 56 213 0.0 1.0 0.00 0.00 0.00 92 968.9
20260502042123 56 213 0.0 0.0 0.00 0.00 0.00 91 968.6
20260502041123 56 213 0.0 0.0 0.00 0.00 0.00 90 968.5
20260502040142 57 213 0.0 0.0 0.00 0.00 0.00 89 968.3
20260502034026 57 213 0.0 1.0 0.00 0.00 0.00 88 967.9
20260502033005 57 213 0.0 1.0 0.00 0.00 0.00 87 967.6
20260502032005 58 213 0.0 0.0 0.00 0.00 0.00 86 967.5
20260502030935 58 213 0.0 0.0 0.00 0.00 0.00 85 967.5